Regional Weather Roundup
Issued by NWS

Home | Current Version | Previous Version | Text Only | Print | Product List | Glossary Off
Versions: 1 2 3 4 5 6 7 8 9 10 11 12 13 14 15 16 17 18 19 20 21 22 23 24 25 26 27 28 29 30 31 32 33 34 35 36 37 38 39 40 41 42 43 44 45 46 47 48 49 50

000
ASUS43 KMPX 101310
RWRMN
WEATHER ROUNDUP FOR MINNESOTA
NATIONAL WEATHER SERVICE TWIN CITIES/CHANHASSEN MN
700 AM CST SUN DEC 10 2017


NOTE: "FAIR" INDICATES FEW OR NO CLOUDS BELOW 12,000 FEET WITH NO
SIGNIFICANT WEATHER AND/OR OBSTRUCTIONS TO VISIBILITY. N/A MEANS
CURRENT SKY AND/OR WEATHER CONDITIONS ARE NOT AVAILABLE.

MNZ060>063-068>070-101400-
   Twin Cities Metro

CITY           SKY/WX    TMP DP  RH WIND       PRES   REMARKS
TWIN CITIES    CLOUDY    26  22  84 NW12      29.90S WCI  16
ST PAUL        CLOUDY    24  20  84 NW7       29.92R WCI  16
CRYSTAL        CLOUDY    25  18  74 NW8       29.89R WCI  16
BLAINE         CLOUDY    25  21  86 NW7       29.89R WCI  17
LAKEVILLE      MOCLDY    23  21  93 NW7       29.89S WCI  15
EDEN PRAIRIE   CLOUDY    27  21  78 NW7       29.89R WCI  19
SOUTH ST PAUL  CLOUDY    25  20  81 N5        29.90R WCI  20
LAKE ELMO      CLOUDY    23  21  93 NW6       29.90R WCI  16
$$
MNZ001>005-007-008-013>017-022>024-027-028-101400-
   Northwest Minnesota

CITY           SKY/WX    TMP DP  RH WIND       PRES   REMARKS
BEMIDJI        CLOUDY    20  17  88 N6        29.92R WCI  13
HALLOCK        CLOUDY    21  18  86 N6        30.01R WCI  14
ROSEAU         CLOUDY    19  16  86 N8        29.99R WCI   9
WARROAD        CLOUDY    18  14  86 NW5       29.98R WCI  11
THIEF RVR FALL CLOUDY    20  16  84 N10       29.99R WCI   9
CROOKSTON      CLOUDY    21  19  93 N9        30.02R WCI  11
FOSSTON        CLOUDY    19  16  86 N6        29.96R WCI  11
DETROIT LAKES  CLOUDY    23  21  93 NW10      29.97R WCI  12
MOORHEAD       CLOUDY    19  16  86 CALM      30.01S
PARK RAPIDS    CLOUDY    22  18  85 N10       29.92R WCI  11
MAHNOMEN       CLOUDY    21  19  90 NW7       29.96R WCI  12
$$
MNZ006-009>011-018-025>026-101400-
   North Central Minnesota

CITY           SKY/WX    TMP DP  RH WIND       PRES   REMARKS
BAUDETTE       CLOUDY    16  12  84 N7        29.95R WCI   6
FLAG ISLAND    CLOUDY    16  12  86 NW10      29.97R WCI   3
INTL FALLS     CLOUDY    15   9  76 N8        29.93R HAZE    WCI   4
WASKISH        CLOUDY    19  16  86 N5        29.94R WCI  13
BIG FORK       CLOUDY    18  16  93 NW3       29.90R
GRAND RAPIDS   CLOUDY    20  15  81 N14       29.90R WCI   7
ORR            FLURRIES  16   9  73 NW5       29.87R WCI   9
COOK           FLURRIES  16  12  86 NW6       29.89R WCI   7
WALKER         CLOUDY    21  17  83 NW6       29.91R WCI  13
$$
MNZ012-019>021-037-101400-
   Northeast Minnesota

CITY           SKY/WX    TMP DP  RH WIND       PRES   REMARKS
DULUTH         CLOUDY    19  15  84 N15       29.84R WCI   5
ELY            FLURRIES  12   9  85 N7        29.86R WCI   2
HIBBING        CLOUDY    17  13  84 N12       29.87R WCI   4
EVELETH        FLURRIES  17  11  77 NW10      29.87R WCI   5
DULUTH HARBOR  CLOUDY    25  18  74 N8G17     29.90R WCI  16
TWO HARBORS    CLOUDY    21  16  79 NW7       29.84R WCI  13
G MARAIS ARPRT LGT SNOW   9   3  78 NW6       29.79R WCI  -1
$$
MNZ029>031-032-039>041-046>048-054>057-064-101400-
   West Central Minnesota

CITY           SKY/WX    TMP DP  RH WIND       PRES   REMARKS
FERGUS FALLS   CLOUDY    21  18  86 N10       30.02R WCI  10
MORRIS         CLOUDY    27  21  80 NW16G25   29.97R WCI  14
ALEXANDRIA     CLOUDY    24  20  84 N9        29.94R WCI  14
ELBOW LAKE     FAIR      22  19  90 W10G16    29.98R WCI  11
WADENA         CLOUDY    23  19  86 NW9       29.93R WCI  13
GLENWOOD       CLEAR     25  21  86 N13       29.95R WCI  13
BENSON         CLOUDY    27  21  80 N13       29.99R WCI  16
ORTONVILLE     CLOUDY    30  23  74 NW13      29.99R WCI  20
MADISON        CLOUDY    34  27  75 NW15      29.99R WCI  24
WILLMAR        FAIR      27  21  80 NW12      29.96R WCI  16
$$
MNZ033>034-036-042>043-049>051-058-059-101400-
   Central Minnesota

CITY           SKY/WX    TMP DP  RH WIND       PRES   REMARKS
ST CLOUD       CLOUDY    25  21  85 NW9       29.91R WCI  15
SAUK CENTRE    CLOUDY    24  20  84 NW10      29.93R WCI  14
PAYNESVILLE    CLOUDY    25  22  89 NW8       29.94R WCI  17
AITKIN         CLOUDY    21  18  86 N9G16     29.89R WCI  11
PINE RIVER     CLOUDY    21  18  86 N8        29.94R WCI  12
BRAINERD       CLOUDY    24  19  81 NW9       29.91R WCI  14
STAPLES        CLOUDY    23  19  86 NW8       29.92R WCI  14
LONG PRAIRIE   CLOUDY    25  21  86 W10       29.92R WCI  15
LITTLE FALLS   CLOUDY    25  18  74 NW6       29.92R WCI  18
LITCHFIELD     CLOUDY    27  23  86 NW8       29.93S WCI  18
BUFFALO        CLOUDY    27  21  80 NW8       29.93R WCI  18
MAPLE LAKE     CLOUDY    27  23  84 NW8       29.92S WCI  19
HUTCHINSON     CLOUDY    27  22  84 NW7       29.94R WCI  19
$$
MNZ037-044-045-052-053-101400-
   East Central Minnesota

CITY           SKY/WX    TMP DP  RH WIND       PRES   REMARKS
PRINCETON      CLOUDY    25  21  86 W3        29.89R
MORA           CLOUDY    27  21  80 NW6       29.90R WCI  20
CAMBRIDGE      CLOUDY    27  18  69 NW5       29.89R WCI  21
RUSH CITY      CLOUDY    24  19  81 N5        29.88S WCI  18
MOOSE LAKE     CLOUDY    25  18  74 N8G17     29.86R WCI  16
HINCKLEY       CLOUDY    27  21  80 NW6       29.88R WCI  20
CLOQUET        CLOUDY    21  16  79 NW12G17   29.86R WCI   9
MCGREGOR       CLOUDY    25  19  80 N12       29.89R WCI  14
$$
MNZ071>073-080-081-089-090-097-098-101400-
   Southwest Minnesota

CITY           SKY/WX    TMP DP  RH WIND       PRES   REMARKS
MONTEVIDEO     CLOUDY    28  21  74 N10       29.98  WCI  19
GRANITE FALLS  CLOUDY    32  25  75 NW9       30.00R WCI  24
CANBY          CLOUDY    33  28  79 W8        30.00R WCI  27
MARSHALL       CLOUDY    33  25  72 NW14      29.98R WCI  23
REDWOOD FALLS  MOCLDY    31  21  66 NW12G20   29.96R WCI  22
OLIVIA         PTCLDY    30  25  80 NW13      29.95R WCI  20
PIPESTONE      CLOUDY    28  23  80 NW9       29.97R WCI  20
WINDOM           N/A     30  18  59 NW18G24   29.95R WCI  18
WORTHINGTON    CLOUDY    31  26  82 NW12      29.97R WCI  22
JACKSON        CLOUDY    32  25  74 MISG      29.95R
TRACY          CLOUDY    33  27  78 NW12      29.97R WCI  24
$$
MNZ065>067-074>077-082>085-091>093-101400-
   South Central Minnesota

CITY           SKY/WX    TMP DP  RH WIND       PRES   REMARKS
MANKATO        CLOUDY    28  23  81 NW14      29.93R WCI  17
NEW ULM        CLOUDY    28  21  74 NW17      29.94R WCI  16
ST JAMES       MOCLDY    30  25  80 NW17G23   29.95R WCI  18
FAIRMONT       CLOUDY    31  24  75 NW18      29.93R WCI  19
GLENCOE        PTCLDY    28  23  82 NW9       29.92R WCI  19
FARIBAULT      CLOUDY    27  21  80 NW9       29.90R WCI  17
WASECA         CLOUDY    28  23  80 NW14G20   29.92R WCI  17
ALBERT LEA     PTCLDY    28  21  74 NW10G16   29.88R WCI  19
$$
MNZ078>079-086>088-094>096-101400-
   Southeast Minnesota

CITY           SKY/WX    TMP DP  RH WIND       PRES   REMARKS
ROCHESTER      CLOUDY    23  20  88 NW14      29.86R WCI  11
RED WING       CLOUDY    19  16  86 W5        29.88R WCI  13
STANTON        CLOUDY    24  20  85 NW5       29.88R WCI  18
DODGE CENTER   PTCLDY    23  19  86 NW14      29.87R WCI  11
WINONA         CLOUDY    21  19  93 NW5       29.88R WCI  15
AUSTIN         CLOUDY    27  21  80 NW12      29.87R WCI  16
PRESTON        CLEAR     22  18  87 NW10      29.85R WCI  11
$$
ABBREVIATIONS USED IN REMARKS
   TC - TEMPERATURES IN CELSIUS
  WCI - WIND CHILL INDEX
   HX - HEAT INDEX
  VSB - VISIBILITY
$$




USA.gov is the U.S. government's official web portal to all federal, state and local government web resources and services.